GW1511 Weather Reports


Display with metric or nautical units.
time (UTC)temp
F
wind
direction
speed
MPH
gust
MPH
rain 1hr
in
rain 24hr
in
rain mn
in
humidity
%
barometer
mb
20260506201019 61 76 0.0 0.0 0.00 0.07 0.07 89 1008.3
20260506200517 61 76 0.0 0.0 0.00 0.07 0.07 89 1008.3
20260506200019 61 77 0.0 0.0 0.00 0.07 0.07 89 1008.3
20260506195515 61 77 0.0 0.0 0.00 0.07 0.07 89 1008.2
20260506195013 61 80 0.0 0.0 0.00 0.07 0.07 89 1008.0
20260506194512 61 80 0.0 0.0 0.00 0.07 0.07 89 1008.0
20260506194010 61 351 0.0 0.0 0.00 0.07 0.07 89 1008.0
20260506193508 61 332 0.0 0.0 0.00 0.07 0.07 89 1007.9
20260506193007 61 111 0.0 0.0 0.00 0.07 0.07 89 1007.8
20260506192506 61 112 0.0 0.0 0.00 0.07 0.07 88 1007.6
20260506192004 61 112 0.0 0.0 0.00 0.07 0.07 88 1007.6
20260506191504 61 111 0.0 0.0 0.00 0.07 0.07 88 1007.6
20260506191001 62 112 0.0 0.0 0.00 0.07 0.07 87 1007.5
20260506190600 62 112 0.0 0.0 0.00 0.07 0.07 87 1007.4
20260506190058 62 112 0.0 0.0 0.00 0.07 0.07 86 1007.4
20260506185557 62 112 0.0 0.0 0.00 0.07 0.07 85 1007.3
20260506185058 62 112 0.0 0.0 0.00 0.07 0.07 85 1007.3
20260506184600 62 112 0.0 0.0 0.00 0.07 0.07 85 1007.2
20260506184053 62 112 0.0 0.0 0.00 0.07 0.07 84 1007.2
20260506183552 63 112 0.0 0.0 0.00 0.07 0.07 84 1007.1
20260506183053 63 113 0.0 0.0 0.00 0.07 0.07 83 1007.1
20260506182548 64 113 0.0 0.0 0.00 0.07 0.07 82 1007.0
20260506182048 64 107 0.0 0.0 0.00 0.07 0.07 81 1006.9
20260506181546 65 109 0.0 0.0 0.00 0.07 0.07 81 1006.8
20260506181045 65 101 0.0 0.0 0.00 0.07 0.07 80 1006.8
20260506180544 66 101 0.0 0.0 0.00 0.07 0.07 79 1006.7
20260506180043 65 113 0.0 0.0 0.00 0.07 0.07 78 1006.6
20260506175539 65 113 0.0 0.0 0.00 0.07 0.07 78 1006.6
20260506175040 65 101 0.0 0.0 0.00 0.07 0.07 77 1006.6
20260506174537 65 148 0.0 0.0 0.00 0.07 0.07 77 1006.5
20260506174035 65 115 0.0 0.0 0.00 0.07 0.07 75 1006.5
20260506173534 65 115 0.0 0.0 0.00 0.07 0.07 74 1006.5
20260506173042 65 118 0.0 0.0 0.00 0.07 0.07 74 1006.4
20260506172531 64 121 0.0 0.0 0.00 0.07 0.07 74 1006.4
20260506172031 64 100 0.0 0.0 0.00 0.07 0.07 74 1006.4
20260506171529 64 87 0.0 0.0 0.00 0.07 0.07 73 1006.5
20260506171028 64 33 0.0 0.0 0.00 0.07 0.07 72 1006.5
20260506170529 64 103 0.0 0.0 0.00 0.07 0.07 74 1006.5
20260506170024 64 98 0.0 0.0 0.00 0.07 0.07 74 1006.4
20260506165522 65 129 0.0 0.0 0.00 0.07 0.07 74 1006.3
20260506165021 65 52 0.0 0.0 0.00 0.07 0.07 74 1006.4
20260506164520 65 271 0.0 0.0 0.00 0.07 0.07 74 1006.4
20260506164019 64 271 0.0 0.0 0.00 0.07 0.07 75 1006.3
20260506163518 64 306 0.0 0.0 0.00 0.07 0.07 74 1006.4
20260506163034 64 348 0.0 0.0 0.00 0.07 0.07 72 1006.3
20260506162514 64 27 0.0 0.0 0.00 0.07 0.07 74 1006.3
20260506162017 65 202 0.0 0.0 0.00 0.07 0.07 74 1006.6
20260506161515 66 327 0.0 0.0 0.00 0.07 0.07 74 1006.5
20260506161010 67 56 0.0 0.0 0.00 0.07 0.07 74 1006.6
20260506160509 69 344 0.0 0.0 0.00 0.07 0.07 76 1006.5
20260506160008 69 264 0.0 0.0 0.00 0.07 0.07 75 1006.1
20260506155504 70 152 0.0 0.0 0.00 0.07 0.07 75 1006.0
20260506155004 70 138 0.0 0.0 0.00 0.07 0.07 75 1006.1
20260506154507 69 122 0.0 0.0 0.00 0.07 0.07 74 1006.1
20260506154002 69 179 0.0 0.0 0.00 0.07 0.07 75 1006.1
20260506153600 69 123 0.0 0.0 0.00 0.07 0.07 77 1006.2
20260506153126 69 137 0.0 0.0 0.00 0.07 0.07 77 1006.2
20260506152559 69 105 0.0 0.0 0.00 0.07 0.07 79 1006.1
20260506152055 69 113 0.0 0.0 0.00 0.07 0.07 79 1006.0
20260506151555 69 119 0.0 0.0 0.00 0.07 0.07 78 1006.0
20260506151054 70 96 0.0 0.0 0.00 0.07 0.07 76 1006.0
20260506150551 70 111 0.0 0.0 0.00 0.07 0.07 76 1006.1
20260506150051 71 98 0.0 0.0 0.00 0.07 0.07 74 1006.2
20260506145551 71 113 0.0 0.0 0.00 0.07 0.07 73 1006.2
20260506145046 71 110 0.0 0.0 0.00 0.07 0.07 73 1006.3
20260506144546 71 126 0.0 0.0 0.00 0.07 0.07 71 1006.3
20260506144044 71 136 0.0 0.0 0.00 0.07 0.07 71 1006.4
20260506143543 71 213 0.0 0.0 0.00 0.07 0.07 73 1006.2
20260506143041 71 130 0.0 0.0 0.00 0.07 0.07 73 1006.3
20260506142542 71 112 0.0 0.0 0.00 0.07 0.07 77 1006.3
20260506142038 71 117 0.0 0.0 0.00 0.07 0.07 78 1006.4
20260506141539 70 120 0.0 0.0 0.00 0.07 0.07 79 1006.4
20260506141036 70 105 0.0 0.0 0.00 0.07 0.07 80 1006.6
20260506140537 70 48 0.0 0.0 0.00 0.07 0.07 82 1006.6
20260506140035 69 114 0.0 0.0 0.00 0.07 0.07 83 1006.7
20260506135530 68 105 0.0 0.0 0.00 0.07 0.07 83 1006.7
20260506135034 68 110 0.0 0.0 0.00 0.07 0.07 84 1006.7
20260506134529 68 103 0.0 0.0 0.00 0.07 0.07 85 1006.7
20260506134028 67 121 0.0 0.0 0.00 0.07 0.07 84 1006.7
20260506133526 67 92 0.0 0.0 0.00 0.07 0.07 85 1006.8
20260506133024 67 98 0.0 0.0 0.00 0.07 0.07 85 1007.0
20260506132523 67 108 0.0 0.0 0.00 0.07 0.07 85 1006.9
20260506132021 67 105 0.0 0.0 0.00 0.07 0.07 87 1006.8
20260506131521 66 117 0.0 0.0 0.00 0.07 0.07 88 1006.9
20260506131018 66 101 0.0 0.0 0.00 0.07 0.07 88 1006.9
20260506130519 65 114 0.0 0.0 0.00 0.07 0.07 88 1006.9
20260506130015 65 99 0.0 0.0 0.00 0.07 0.07 88 1007.0
20260506125513 65 103 0.0 0.0 0.00 0.07 0.07 88 1006.9
20260506125012 65 92 0.0 0.0 0.00 0.07 0.07 89 1007.0
20260506124510 65 94 0.0 0.0 0.00 0.07 0.07 89 1007.0
20260506124009 65 87 0.0 0.0 0.00 0.07 0.07 89 1007.0
20260506123510 65 112 0.0 0.0 0.00 0.07 0.07 89 1007.2
20260506123009 64 97 0.0 0.0 0.00 0.07 0.07 89 1007.3
20260506122506 64 116 0.0 0.0 0.01 0.07 0.07 89 1007.3
20260506122003 64 103 0.0 0.0 0.01 0.07 0.07 89 1007.3
20260506121502 64 107 0.0 0.0 0.01 0.07 0.07 89 1007.4
20260506121001 64 122 0.0 0.0 0.01 0.07 0.07 89 1007.6
20260506120559 64 122 0.0 0.0 0.01 0.07 0.07 89 1007.7
20260506120058 64 105 0.0 0.0 0.01 0.07 0.07 89 1007.7
20260506115556 64 103 0.0 0.0 0.01 0.07 0.07 89 1007.7
20260506115055 64 109 0.0 0.0 0.01 0.07 0.07 89 1007.7
20260506114554 64 103 0.0 0.0 0.01 0.07 0.07 89 1007.7
20260506114051 64 119 0.0 0.0 0.01 0.07 0.07 89 1007.8
20260506113551 64 107 0.0 0.0 0.01 0.07 0.07 89 1007.8
20260506113050 64 130 0.0 0.0 0.01 0.07 0.07 90 1007.7
20260506112547 64 126 0.0 0.0 0.00 0.06 0.06 89 1007.8
20260506112046 64 88 0.0 0.0 0.00 0.06 0.06 89 1007.7
20260506111545 64 115 0.0 0.0 0.00 0.06 0.06 89 1007.8
20260506111043 63 130 0.0 0.0 0.00 0.06 0.06 89 1007.8
20260506110542 63 103 0.0 0.0 0.00 0.06 0.06 89 1007.9
20260506110042 63 85 0.0 0.0 0.00 0.06 0.06 88 1008.0
20260506105539 63 94 0.0 0.0 0.00 0.06 0.06 88 1008.1
20260506105037 63 76 0.0 0.0 0.00 0.06 0.06 88 1008.1
20260506104537 63 101 0.0 0.0 0.00 0.06 0.06 88 1008.1
20260506104035 63 127 0.0 0.0 0.00 0.06 0.06 88 1008.0
20260506103533 63 96 0.0 0.0 0.00 0.06 0.06 88 1008.2
20260506103032 63 97 0.0 0.0 0.00 0.06 0.06 88 1008.2
20260506102531 63 101 0.0 0.0 0.00 0.06 0.06 87 1008.2
20260506102028 63 118 0.0 0.0 0.00 0.06 0.06 88 1008.2
20260506101528 63 121 0.0 0.0 0.00 0.06 0.06 87 1008.3
20260506101027 63 118 0.0 0.0 0.00 0.06 0.06 87 1008.3
20260506100525 63 125 0.0 0.0 0.00 0.06 0.06 87 1008.3
20260506100023 63 124 0.0 0.0 0.00 0.06 0.06 87 1008.3
20260506095522 63 105 0.0 0.0 0.00 0.13 0.06 87 1008.3
20260506095020 63 112 0.0 0.0 0.00 0.13 0.06 88 1008.3
20260506094519 63 113 0.0 0.0 0.00 0.13 0.06 88 1008.3
20260506094019 63 121 0.0 0.0 0.00 0.13 0.06 89 1008.2
20260506093521 63 90 0.0 0.0 0.00 0.13 0.06 89 1008.2
20260506093014 62 98 0.0 0.0 0.00 0.13 0.06 89 1008.3
20260506092513 62 134 0.0 0.0 0.00 0.13 0.06 89 1008.4
20260506092011 62 130 0.0 0.0 0.00 0.13 0.06 89 1008.4
20260506091510 62 111 0.0 0.0 0.00 0.13 0.06 89 1008.4
20260506091012 62 79 0.0 0.0 0.00 0.13 0.06 89 1008.3
20260506090506 62 113 0.0 0.0 0.00 0.13 0.06 89 1008.4
20260506090006 62 111 0.0 0.0 0.00 0.13 0.06 90 1008.3
20260506085504 61 79 0.0 0.0 0.00 0.24 0.06 90 1008.3
20260506085002 61 94 0.0 0.0 0.00 0.24 0.06 90 1008.3
20260506084502 61 99 0.0 0.0 0.00 0.24 0.06 90 1008.4
20260506084100 61 97 0.0 0.0 0.00 0.24 0.06 90 1008.2
20260506083559 61 98 0.0 0.0 0.00 0.24 0.06 90 1008.3
20260506083058 61 109 0.0 0.0 0.00 0.24 0.06 90 1008.3
20260506082555 61 115 0.0 0.0 0.00 0.24 0.06 90 1008.3
20260506082054 61 136 0.0 0.0 0.00 0.24 0.06 90 1008.3
20260506081603 61 130 0.0 0.0 0.00 0.24 0.06 89 1008.2
20260506081054 61 130 0.0 0.0 0.00 0.24 0.06 88 1008.2
20260506080550 60 97 0.0 0.0 0.00 0.24 0.06 86 1008.0
20260506073039 0 0.0 0.0 0.00 0.35 0.06 1008.2
20260506072538 0 0.0 0.0 0.00 0.35 0.06 1008.3
20260506072037 0 0.0 0.0 0.00 0.35 0.06 1008.2
20260506071535 0 0.0 0.0 0.00 0.35 0.06 1008.2
20260506071035 0 0.0 0.0 0.00 0.35 0.06 1008.2
20260506070532 0 0.0 0.0 0.00 0.35 0.06 1008.3
20260506062023 58 78 1.0 3.0 0.00 0.35 0.06 97 1008.6
20260506061526 58 80 1.0 3.0 0.00 0.35 0.06 97 1008.5
20260506061026 58 75 0.0 3.0 0.01 0.35 0.06 97 1008.5
20260506060523 58 72 0.0 2.0 0.01 0.35 0.06 97 1008.5
20260506051018 57 63 0.0 1.0 0.02 0.35 0.06 97 1009.1
20260506050520 57 63 0.0 1.0 0.02 0.35 0.06 97 1009.0
20260506045009 56 63 0.0 2.0 0.00 0.33 0.04 97 1009.1
20260506044515 57 63 0.0 2.0 0.00 0.33 0.04 97 1009.0
20260506044007 56 63 0.0 2.0 0.00 0.33 0.04 97 1008.9
20260506043508 56 63 0.0 2.0 0.00 0.33 0.04 97 1008.8
20260506043008 56 62 0.0 2.0 0.00 0.33 0.04 97 1008.7
20260506042508 56 55 0.0 2.0 0.00 0.33 0.04 97 1008.6
20260506042008 56 55 0.0 2.0 0.00 0.33 0.04 97 1008.7
20260506041507 56 47 0.0 1.0 0.00 0.33 0.04 97 1008.7
20260506041007 56 22 0.0 0.0 0.01 0.33 0.04 97 1008.8
20260506040507 57 125 0.0 3.0 0.01 0.33 0.04 70 1008.8
20260506040006 57 124 0.0 3.0 0.02 0.33 0.04 71 1008.7
20260506035509 57 132 0.0 3.0 0.03 0.33 0.04 71 1008.6
20260506035005 57 20 0.0 3.0 0.04 0.33 0.04 72 1008.4
20260506034505 57 35 0.0 3.0 0.04 0.33 0.04 73 1008.4
20260506034008 57 86 0.0 3.0 0.04 0.33 0.04 73 1008.3
20260506033505 57 113 0.0 3.0 0.04 0.33 0.04 72 1008.0
20260506033006 57 125 0.0 3.0 0.04 0.33 0.04 72 1007.8
20260506032504 57 103 0.0 3.0 0.04 0.33 0.04 72 1007.6
20260506032004 57 84 0.0 3.0 0.04 0.33 0.04 72 1007.7
20260506031503 57 107 0.0 3.0 0.03 0.32 0.03 73 1007.9
20260506031002 57 82 0.0 3.0 0.03 0.32 0.03 73 1008.2
20260506030500 57 128 0.0 3.0 0.03 0.32 0.03 72 1008.5
20260506030100 57 76 0.0 3.0 0.02 0.31 0.02 73 1008.6
20260506025557 56 32 0.0 3.0 0.01 0.30 0.01 74 1008.8
20260506025056 56 126 0.0 3.0 0.00 0.28 0.00 74 1009.1
20260506024606 56 125 0.0 3.0 0.00 0.28 0.00 74 1009.3
20260506024054 56 126 0.0 3.0 0.00 0.28 0.00 74 1009.2
20260506023553 56 127 0.0 3.0 0.00 0.28 0.00 74 1009.3
20260506023107 56 137 0.0 3.0 0.00 0.28 0.00 74 1009.4
20260506022551 56 134 0.0 3.0 0.00 0.28 0.00 75 1009.4
20260506022056 56 108 0.0 3.0 0.00 0.28 0.00 76 1009.4
20260506021551 56 144 0.0 3.0 0.00 0.28 0.00 77 1009.6
20260506021053 55 148 0.0 3.0 0.00 0.28 0.00 78 1009.4
20260506020553 55 159 0.0 3.0 0.00 0.28 0.00 79 1009.4
20260506020054 55 160 0.0 3.0 0.00 0.28 0.00 80 1009.4
20260506015549 55 161 0.0 3.0 0.00 0.28 0.00 80 1009.4
20260506015049 55 125 0.0 3.0 0.00 0.28 0.00 81 1009.5
20260506014549 55 198 0.0 3.0 0.00 0.28 0.00 81 1009.6
20260506014048 56 152 0.0 3.0 0.00 0.28 0.00 81 1009.4
20260506013549 56 153 0.0 3.0 0.00 0.28 0.00 81 1009.6
20260506013054 56 126 0.0 3.0 0.00 0.28 0.00 81 1009.6
20260506012551 56 126 0.0 3.0 0.00 0.28 0.00 81 1009.6
20260506012048 56 123 0.0 3.0 0.00 0.28 0.00 81 1009.7
20260506011549 56 121 0.0 3.0 0.00 0.28 0.00 81 1009.7
20260506011047 56 128 0.0 3.0 0.00 0.28 0.00 81 1009.9
20260506010546 56 115 0.0 3.0 0.00 0.28 0.00 81 1009.9
20260506010049 56 115 0.0 3.0 0.00 0.28 0.00 81 1009.8
20260506005547 56 120 0.0 3.0 0.00 0.28 0.00 81 1009.8
20260506005048 56 129 0.0 3.0 0.00 0.28 0.00 82 1009.7
20260506004546 56 103 0.0 3.0 0.00 0.28 0.00 81 1009.6
20260506004045 56 130 0.0 3.0 0.00 0.28 0.00 82 1009.5
20260506003545 56 82 0.0 3.0 0.00 0.28 0.00 82 1009.4
20260506003045 56 76 0.0 3.0 0.00 0.28 0.00 82 1009.4
20260506002544 56 77 0.0 3.0 0.00 0.28 0.00 82 1009.5
20260506002043 56 75 0.0 3.0 0.00 0.28 0.00 82 1009.7
20260506001550 56 113 0.0 3.0 0.00 0.28 0.00 82 1009.9
20260506001042 56 71 0.0 3.0 0.00 0.28 0.00 82 1009.8
20260506000545 56 61 0.0 3.0 0.00 0.28 0.00 82 1009.9
20260506000042 55 74 0.0 3.0 0.00 0.28 0.00 82 1010.0
20260505235541 55 68 0.0 3.0 0.00 0.28 0.00 83 1009.9
20260505235040 55 64 0.0 3.0 0.00 0.28 0.00 83 1009.9
20260505234541 55 65 0.0 3.0 0.00 0.28 0.00 83 1009.9
20260505234041 55 86 0.0 3.0 0.00 0.28 0.00 83 1009.9
20260505233543 55 85 0.0 3.0 0.00 0.28 0.00 84 1010.0
20260505233040 55 50 0.0 3.0 0.00 0.28 0.00 84 1010.1
20260505232539 55 71 0.0 3.0 0.00 0.28 0.00 84 1010.0
20260505232039 56 71 0.0 3.0 0.00 0.28 0.00 84 1010.0
20260505231539 56 55 0.0 3.0 0.00 0.28 0.00 84 1010.1
20260505231039 56 62 0.0 3.0 0.00 0.28 0.00 84 1010.1
20260505230538 56 79 0.0 3.0 0.00 0.28 0.00 84 1010.0
20260505225537 56 55 0.0 3.0 0.00 0.28 0.00 84 1010.1
20260505225037 56 82 0.0 3.0 0.00 0.28 0.00 84 1010.1
20260505224537 56 107 0.0 3.0 0.00 0.28 0.00 84 1010.1
20260505224036 56 59 0.0 3.0 0.00 0.28 0.00 84 1010.1
20260505223535 56 73 0.0 3.0 0.00 0.28 0.00 84 1010.2
20260505223040 56 60 0.0 3.0 0.00 0.28 0.00 84 1010.3
20260505222536 56 84 0.0 3.0 0.00 0.28 0.00 84 1010.4
20260505222038 56 53 0.0 3.0 0.00 0.28 0.00 84 1010.4
20260505221543 56 20 0.0 3.0 0.00 0.28 0.00 84 1010.4
20260505221034 56 57 0.0 3.0 0.00 0.28 0.00 84 1010.4
20260505220534 56 82 0.0 3.0 0.00 0.28 0.00 85 1010.4
20260505220048 56 64 0.0 3.0 0.00 0.28 0.00 85 1010.4
20260505215536 56 64 0.0 3.0 0.00 0.28 0.28 85 1010.6
20260505215032 56 68 0.0 3.0 0.00 0.28 0.28 85 1010.6
20260505214536 56 75 0.0 3.0 0.00 0.28 0.28 85 1010.6
20260505214032 56 55 0.0 3.0 0.00 0.28 0.28 85 1010.6
20260505213531 56 99 0.0 3.0 0.00 0.28 0.28 85 1010.7
20260505213034 56 71 0.0 3.0 0.00 0.28 0.28 85 1010.8
20260505212531 56 101 0.0 3.0 0.00 0.28 0.28 85 1010.8
20260505212031 56 42 0.0 3.0 0.00 0.28 0.28 86 1010.7
20260505211532 56 86 0.0 3.0 0.00 0.28 0.28 86 1010.8
20260505211030 56 31 0.0 3.0 0.00 0.28 0.28 86 1010.8
20260505210530 56 72 0.0 3.0 0.00 0.28 0.28 86 1011.0
20260505210034 56 331 0.0 3.0 0.00 0.28 0.28 86 1011.0
20260505205530 56 65 0.0 3.0 0.00 0.28 0.28 86 1011.0
20260505205031 56 67 0.0 3.0 0.00 0.28 0.28 86 1010.9
20260505204530 56 269 0.0 3.0 0.00 0.28 0.28 86 1010.8
20260505204032 56 63 0.0 3.0 0.00 0.28 0.28 86 1010.9
20260505203529 56 90 0.0 3.0 0.00 0.28 0.28 86 1010.9
20260505203029 56 63 0.0 3.0 0.00 0.28 0.28 86 1010.9
20260505202528 56 80 0.0 3.0 0.00 0.28 0.28 87 1010.9
20260505202027 56 55 0.0 3.0 0.00 0.28 0.28 87 1010.9
20260505201528 56 56 0.0 3.0 0.00 0.28 0.28 87 1010.9